Weather History for K65S - May, 2013

Change the Weather History Date:

Saturday, May 25, 2013

  Actual Average (KSZT) Record (KSZT)
Temperature  
Mean Temperature 52 °F -  
Max Temperature 59 °F 67 °F 89 °F (1928)
Min Temperature 44 °F 42 °F 27 °F (1926)
Degree Days  
Heating Degree Days 14    
Growing Degree Days 2 (Base 50)    
Moisture  
Dew Point 40 °F    
Average Humidity 68    
Maximum Humidity 87    
Minimum Humidity 48    
Precipitation  
Precipitation 0.00 in - - ()
Sea Level Pressure  
Sea Level Pressure 30.00 in    
Wind  
Wind Speed 4 mph (SSW)    
Max Wind Speed 8 mph    
Max Gust Speed -    
Visibility 10 miles    
Events      
Averages and records for this station are not official NWS values.
T = Trace of Precipitation, MM = Missing Value Source: NWS Daily Summary

Daily Weather History Graph

Daily Weather History Graph

Search for Another Location

Airport or City:

Trip Planner

Search our weather history database for the weather conditions in past years. The results will help you decide how hot, cold, wet, or windy it might be!

Date:

Astronomy

May. 25, 2013 Rise Set
Actual Time 4:52 AM PDT 8:32 PM PDT
Civil Twilight 4:12 AM PDT 9:12 PM PDT
Nautical Twilight 3:18 AM PDT 10:06 PM PDT
Astronomical Twilight 2:02 AM PDT 11:24 PM PDT
Moon 9:24 PM PDT (5/25) 5:25 AM PDT (5/25)
Length of Visible Light 17h 00m
Length of Day
15h 40m
Waxing Gibbous, 99% of the Moon is Illuminated
May 25
Waxing Gibbous
May 31
Last Quarter
Jun 8
New
Jun 16
First Quarter
Jun 23
Full

Hourly Weather History & Observations

Time (PDT) Temp. Windchill Dew Point Humidity Pressure Visibility Wind Dir Wind Speed Gust Speed Precip Events Conditions
12:10 AM 44.6 °F 42.2 °F 39.2 °F 81% 29.99 in 10.0 mi South 4.6 mph - N/A   Overcast
12:30 AM 44.6 °F 42.2 °F 39.2 °F 81% 29.98 in 10.0 mi SSW 4.6 mph - N/A   Overcast
12:50 AM 44.6 °F 42.2 °F 39.2 °F 81% 29.98 in 10.0 mi SSW 4.6 mph - N/A   Overcast
1:10 AM 44.6 °F - 39.2 °F 81% 29.98 in 10.0 mi Calm Calm - N/A   Mostly Cloudy
1:30 AM 46.4 °F 42.9 °F 39.2 °F 76% 29.98 in 10.0 mi SSW 6.9 mph - N/A   Overcast
1:50 AM 46.4 °F 43.5 °F 39.2 °F 76% 29.98 in 10.0 mi SSW 5.8 mph - N/A   Overcast
2:10 AM 46.4 °F 45.2 °F 39.2 °F 76% 29.98 in 10.0 mi SW 3.5 mph - N/A   Overcast
2:30 AM 46.4 °F 44.3 °F 39.2 °F 76% 29.98 in 10.0 mi SW 4.6 mph - N/A   Overcast
2:50 AM 46.4 °F 42.4 °F 39.2 °F 76% 29.98 in 10.0 mi SW 8.1 mph - N/A   Overcast
3:10 AM 46.4 °F 42.9 °F 39.2 °F 76% 29.97 in 10.0 mi SSW 6.9 mph - N/A   Overcast
3:30 AM 46.4 °F 44.3 °F 39.2 °F 76% 29.97 in 10.0 mi SW 4.6 mph - N/A   Overcast
3:50 AM 46.4 °F - 39.2 °F 76% 29.98 in 10.0 mi Calm Calm - N/A   Overcast
4:10 AM 44.6 °F - 41.0 °F 87% 29.98 in 10.0 mi Calm Calm - N/A   Overcast
4:30 AM 44.6 °F 41.4 °F 39.2 °F 81% 29.99 in 10.0 mi SSW 5.8 mph - N/A   Scattered Clouds
4:50 AM 44.6 °F 42.2 °F 39.2 °F 81% 29.99 in 10.0 mi SW 4.6 mph - N/A   Partly Cloudy
5:10 AM 44.6 °F 43.1 °F 39.2 °F 81% 29.99 in 10.0 mi SSE 3.5 mph - N/A   Clear
5:30 AM 44.6 °F 42.2 °F 39.2 °F 81% 29.99 in 10.0 mi SSE 4.6 mph - N/A   Clear
5:50 AM 44.6 °F 43.1 °F 39.2 °F 81% 29.99 in 10.0 mi South 3.5 mph - N/A   Clear
6:10 AM 44.6 °F 42.2 °F 39.2 °F 81% 29.99 in 10.0 mi South 4.6 mph - N/A   Clear
6:30 AM 44.6 °F 43.1 °F 39.2 °F 81% 30.00 in 10.0 mi SSE 3.5 mph - N/A   Clear
6:50 AM 46.4 °F 45.2 °F 39.2 °F 76% 30.00 in 10.0 mi SSE 3.5 mph - N/A   Scattered Clouds
7:10 AM 46.4 °F - 39.2 °F 76% 30.00 in 10.0 mi Calm Calm - N/A   Overcast
7:30 AM 46.4 °F 45.2 °F 39.2 °F 76% 30.00 in 10.0 mi South 3.5 mph - N/A   Overcast
7:50 AM 46.4 °F 44.3 °F 41.0 °F 81% 30.00 in 10.0 mi South 4.6 mph - N/A   Overcast
8:10 AM 48.2 °F - 39.2 °F 71% 30.00 in 10.0 mi South 5.8 mph - N/A   Overcast
8:35 AM 48.2 °F - 39.2 °F 71% 30.00 in 10.0 mi South 6.9 mph - N/A   Overcast
8:50 AM 48.2 °F - 41.0 °F 76% 30.01 in 10.0 mi South 3.5 mph - N/A   Overcast
9:10 AM 50.0 °F - 39.2 °F 66% 30.01 in 10.0 mi SW 4.6 mph - N/A   Overcast
9:30 AM 50.0 °F - 41.0 °F 71% 30.01 in 10.0 mi South 4.6 mph - N/A   Overcast
9:50 AM 50.0 °F - 41.0 °F 71% 30.01 in 10.0 mi SSW 6.9 mph - N/A   Overcast
10:10 AM 50.0 °F - 41.0 °F 71% 30.01 in 10.0 mi South 4.6 mph - N/A   Overcast
10:30 AM 50.0 °F - 39.2 °F 66% 30.01 in 10.0 mi South 6.9 mph - N/A   Overcast
10:50 AM 51.8 °F - 39.2 °F 62% 30.01 in 10.0 mi SSW 4.6 mph - N/A   Overcast
11:10 AM 51.8 °F - 39.2 °F 62% 30.01 in 10.0 mi SSW 4.6 mph - N/A   Overcast
11:30 AM 51.8 °F - 39.2 °F 62% 30.01 in 10.0 mi South 6.9 mph - N/A   Overcast
11:50 AM 53.6 °F - 39.2 °F 58% 30.01 in 10.0 mi South 4.6 mph - N/A   Overcast
12:10 PM 53.6 °F - 39.2 °F 58% 30.01 in 10.0 mi SW 3.5 mph - N/A   Overcast
12:30 PM 53.6 °F - 39.2 °F 58% 30.01 in 10.0 mi SSW 4.6 mph - N/A   Overcast
12:50 PM 55.4 °F - 37.4 °F 51% 30.01 in 10.0 mi South 4.6 mph - N/A   Overcast
1:10 PM 55.4 °F - 39.2 °F 54% 30.01 in 10.0 mi SSW 6.9 mph - N/A   Overcast
1:35 PM 55.4 °F - 39.2 °F 54% 30.01 in 10.0 mi SSW 5.8 mph - N/A   Overcast
1:50 PM 55.4 °F - 39.2 °F 54% 30.01 in 10.0 mi South 4.6 mph - N/A   Overcast
2:10 PM 55.4 °F - 39.2 °F 54% 30.01 in 10.0 mi SSE 5.8 mph - N/A   Overcast
2:30 PM 57.2 °F - 39.2 °F 51% 30.01 in 10.0 mi South 4.6 mph - N/A   Overcast
2:50 PM 57.2 °F - 39.2 °F 51% 30.01 in 10.0 mi SSE 6.9 mph - N/A   Overcast
3:10 PM 57.2 °F - 37.4 °F 48% 30.01 in 10.0 mi SSE 6.9 mph - N/A   Overcast
3:30 PM 57.2 °F - 39.2 °F 51% 30.01 in 10.0 mi SSW 4.6 mph - N/A   Overcast
3:50 PM 55.4 °F - 39.2 °F 54% 30.01 in 10.0 mi SSW 3.5 mph - N/A   Overcast
4:10 PM 55.4 °F - 39.2 °F 54% 30.00 in 10.0 mi SW 5.8 mph - N/A   Overcast
4:30 PM 57.2 °F - 41.0 °F 55% 30.00 in 10.0 mi WSW 8.1 mph - N/A   Overcast
4:50 PM 59.0 °F - 39.2 °F 48% 30.00 in 10.0 mi SSW 3.5 mph - N/A   Mostly Cloudy
5:10 PM 59.0 °F - 39.2 °F 48% 30.00 in 10.0 mi SW 6.9 mph - N/A   Partly Cloudy
5:35 PM 59.0 °F - 39.2 °F 48% 30.00 in 10.0 mi SW 5.8 mph - N/A   Clear
5:50 PM 55.4 °F - 37.4 °F 51% 30.00 in 10.0 mi SW 3.5 mph - N/A   Clear
6:10 PM 55.4 °F - 37.4 °F 51% 30.00 in 10.0 mi Calm Calm - N/A   Mostly Cloudy
6:30 PM 55.4 °F - 39.2 °F 54% 30.00 in 10.0 mi Calm Calm - N/A   Overcast
6:50 PM 55.4 °F - 39.2 °F 54% 30.00 in 10.0 mi SW 4.6 mph - N/A   Overcast
7:10 PM 53.6 °F - 39.2 °F 58% 30.01 in 10.0 mi West 5.8 mph - N/A   Overcast
7:30 PM 53.6 °F - 39.2 °F 58% 30.01 in 10.0 mi Calm Calm - N/A   Overcast
7:50 PM 53.6 °F - 39.2 °F 58% 30.00 in 10.0 mi Calm Calm - N/A   Overcast
8:10 PM 51.8 °F - 41.0 °F 67% 30.00 in 10.0 mi Calm Calm - N/A   Overcast
8:30 PM 50.0 °F - 39.2 °F 66% 30.00 in 10.0 mi Calm Calm - N/A   Overcast
8:50 PM 50.0 °F - 41.0 °F 71% 30.01 in 10.0 mi North 3.5 mph - N/A   Overcast
9:10 PM 50.0 °F - 41.0 °F 71% 30.01 in 10.0 mi Calm Calm - N/A   Mostly Cloudy
9:30 PM 50.0 °F - 39.2 °F 66% 30.01 in 10.0 mi Calm Calm - N/A   Mostly Cloudy
9:50 PM 48.2 °F - 41.0 °F 76% 30.01 in 10.0 mi SSE 3.5 mph - N/A   Scattered Clouds
10:10 PM 46.4 °F - 41.0 °F 81% 30.01 in 10.0 mi Calm Calm - N/A   Mostly Cloudy
10:30 PM 44.6 °F - 41.0 °F 87% 30.01 in 10.0 mi Calm Calm - N/A   Overcast
10:50 PM 46.4 °F - 41.0 °F 81% 30.02 in 10.0 mi Calm Calm - N/A   Overcast
11:15 PM 44.6 °F - 41.0 °F 87% 30.02 in 10.0 mi Calm Calm - N/A   Overcast
11:30 PM 44.6 °F - 41.0 °F 87% 30.02 in 10.0 mi Calm Calm - N/A   Overcast
11:50 PM 46.4 °F - 41.0 °F 81% 30.02 in 10.0 mi Calm Calm - N/A   Overcast